DateTimeUTC,F1_A11,F1_S11,BsB_S11,BsG_S11,BsR_S11,BbsB_S11,BbsG_S11,BbsR_S11,BaB_A11,BaG_A11,BaR_A11,Tu_S11,T_S11,Uu_S11,U_S11,P_S11,T1_A11
2021-08-13T20:00:00Z,00000200,20000000,,,,,,,0000.22,0000.42,0000.11,18.5,24.9,12.1,08.2,0673.6,30.9
2021-08-13T20:01:00Z,00000200,20000000,,,,,,,-000.37,-000.59,-000.26,18.5,24.9,12.0,08.1,0673.6,30.9
2021-08-13T20:02:00Z,00000200,20000000,,,,,,,0000.30,0000.05,0000.04,18.5,25.0,12.1,08.1,0673.6,30.9
2021-08-13T20:03:00Z,00000200,60000000,,,,,,,0013.20,0012.13,0009.48,18.5,25.0,12.1,08.1,0673.6,30.9
2021-08-13T20:04:00Z,00000200,40000000,0069.04,0060.18,0043.85,0008.30,0006.49,0005.17,0016.10,0015.33,0012.70,18.6,24.8,12.1,08.3,0674.6,30.9
2021-08-13T20:05:00Z,00000200,00000000,0068.85,0059.80,0044.10,0007.97,0006.32,0004.87,0016.21,0015.50,0012.67,18.6,24.7,12.2,08.4,0674.7,30.9
2021-08-13T20:06:00Z,00000200,00000000,0068.09,0059.32,0043.64,0007.60,0006.34,0004.79,0016.32,0015.20,0012.25,18.6,24.7,12.3,08.5,0674.7,30.9
2021-08-13T20:07:00Z,00000200,00000000,0067.17,0058.81,0042.71,0008.17,0006.07,0004.93,0016.10,0014.71,0012.26,18.6,24.7,12.3,08.5,0674.7,30.9
2021-08-13T20:08:00Z,00000200,00000000,0066.01,0059.04,0043.26,0008.37,0005.94,0004.75,0016.07,0015.37,0012.21,18.6,24.7,12.4,08.5,0674.8,30.9
2021-08-13T20:09:00Z,00000200,00000000,0066.04,0057.08,0042.66,0007.66,0006.05,0005.24,0015.97,0014.54,0012.31,18.6,24.7,12.4,08.6,0674.7,30.9
2021-08-13T20:10:00Z,00000200,00000000,0065.22,0055.89,0041.22,0007.58,0005.73,0005.09,0015.19,0014.39,0011.90,18.6,24.7,12.4,08.5,0674.7,30.9
2021-08-13T20:11:00Z,00000200,00000000,0063.48,0055.43,0040.88,0007.67,0005.96,0004.89,0015.50,0014.28,0011.32,18.6,24.7,12.4,08.6,0674.6,30.9
2021-08-13T20:12:00Z,00000200,00000000,0063.94,0055.15,0040.11,0007.25,0005.74,0004.61,0015.30,0014.53,0011.47,18.6,24.7,12.4,08.5,0674.6,30.9
2021-08-13T20:13:00Z,00000200,00000000,0062.99,0055.48,0040.26,0007.44,0005.70,0004.90,0015.14,0013.96,0011.76,18.6,24.6,12.4,08.6,0674.7,30.9
2021-08-13T20:14:00Z,00000200,00000000,0062.04,0054.57,0040.46,0006.77,0005.51,0004.95,0015.02,0014.14,0011.48,18.6,24.7,12.5,08.6,0674.7,30.9
2021-08-13T20:15:00Z,00000200,00000000,0063.08,0054.39,0039.85,0006.98,0005.65,0004.23,0014.95,0014.20,0011.61,18.6,24.7,12.5,08.6,0674.7,30.9
2021-08-13T20:16:00Z,00000200,00000000,0062.03,0053.66,0039.61,0007.25,0005.81,0004.60,0014.67,0013.78,0011.22,18.6,24.7,12.7,08.7,0674.7,30.9
2021-08-13T20:17:00Z,00000200,00000000,0061.20,0053.84,0039.85,0007.04,0005.91,0004.98,0015.03,0013.65,0011.29,18.6,24.7,12.5,08.6,0674.7,30.9
2021-08-13T20:18:00Z,00000200,00000000,0060.60,0052.68,0038.64,0006.78,0005.36,0004.64,0014.48,0013.98,0011.08,18.6,24.7,12.5,08.6,0674.6,30.9
2021-08-13T20:19:00Z,00000200,00000000,0060.51,0053.59,0038.90,0007.85,0006.00,0004.60,0014.97,0013.57,0011.24,18.6,24.7,12.5,08.6,0674.7,30.9
2021-08-13T20:20:00Z,00000200,00000000,0060.83,0053.65,0038.45,0006.90,0005.43,0004.26,0014.16,0013.45,0010.71,18.5,24.6,12.6,08.6,0674.6,30.9
2021-08-13T20:21:00Z,00000200,00000000,0061.95,0053.15,0038.62,0007.35,0005.53,0004.74,0014.65,0013.53,0011.40,18.5,24.6,12.5,08.6,0674.7,30.9
2021-08-13T20:22:00Z,00000200,00000000,0061.22,0051.97,0038.56,0007.21,0005.50,0004.62,0014.74,0013.49,0010.99,18.5,24.6,12.6,08.7,0674.6,30.9
2021-08-13T20:23:00Z,00000200,00000000,0062.23,0052.90,0038.67,0007.42,0005.50,0004.55,0014.71,0014.15,0011.41,18.5,24.6,12.6,08.7,0674.7,30.8
2021-08-13T20:24:00Z,00000200,00000000,0061.67,0052.55,0038.18,0007.12,0005.71,0004.68,0014.42,0013.55,0010.96,18.5,24.6,12.7,08.7,0674.7,30.8
2021-08-13T20:25:00Z,00000200,00000000,0061.65,0052.52,0038.94,0006.74,0005.56,0004.62,0014.34,0013.71,0011.08,18.5,24.6,12.6,08.6,0674.6,30.9
2021-08-13T20:26:00Z,00000200,00000000,0060.30,0052.85,0038.46,0006.85,0005.45,0004.51,0014.82,0013.55,0010.86,18.5,24.6,12.6,08.7,0674.7,30.8
2021-08-13T20:27:00Z,00000200,00000000,0059.93,0052.36,0037.97,0007.18,0005.49,0004.71,0014.64,0013.88,0011.45,18.5,24.6,12.7,08.8,0674.5,30.8
2021-08-13T20:28:00Z,00000200,00000000,0061.71,0051.59,0037.98,0006.97,0005.53,0004.78,0014.45,0012.99,0010.82,18.6,24.6,12.7,08.8,0674.6,30.9
2021-08-13T20:29:00Z,00000200,00000000,0061.50,0052.93,0038.26,0007.64,0005.52,0004.42,0014.34,0013.74,0010.65,18.6,24.7,12.6,08.7,0674.5,30.9
2021-08-13T20:30:00Z,00000200,00000000,0061.13,0051.93,0038.15,0006.46,0005.60,0004.39,0014.62,0013.45,0011.23,18.7,24.7,12.6,08.7,0674.4,30.9
2021-08-13T20:31:00Z,00000200,00000000,0060.27,0052.21,0037.82,0006.41,0005.56,0004.42,0014.51,0013.33,0010.75,18.7,24.7,12.5,08.7,0674.5,30.9
2021-08-13T20:32:00Z,00000200,00000000,0061.17,0051.66,0038.32,0006.88,0005.39,0004.18,0014.43,0013.67,0011.39,18.7,24.7,12.5,08.7,0674.6,30.9
2021-08-13T20:33:00Z,00000200,00000000,0058.90,0052.94,0037.38,0007.14,0005.61,0004.42,0014.28,0013.52,0011.11,18.7,24.7,12.6,08.7,0674.6,30.9
2021-08-13T20:34:00Z,00000200,00000000,0060.85,0052.09,0037.99,0007.31,0005.51,0004.47,0014.46,0013.50,0011.00,18.7,24.7,12.6,08.7,0674.6,30.9
2021-08-13T20:35:00Z,00000200,00000000,0061.49,0052.67,0038.22,0007.42,0006.10,0004.77,0014.55,0013.79,0011.19,18.6,24.7,12.7,08.8,0674.6,30.9
2021-08-13T20:36:00Z,00000200,00000000,0061.56,0052.56,0039.13,0007.22,0005.27,0004.53,0015.04,0013.61,0011.11,18.6,24.7,12.6,08.7,0674.6,30.9
2021-08-13T20:37:00Z,00000200,00000000,0059.07,0052.32,0038.18,0007.11,0005.13,0004.18,0014.37,0013.60,0011.00,18.6,24.6,12.7,08.7,0674.6,30.9
2021-08-13T20:38:00Z,00000200,00000000,0062.32,0052.75,0038.48,0007.19,0005.48,0004.43,0014.43,0013.51,0010.84,18.6,24.6,12.8,08.8,0674.7,30.9
2021-08-13T20:39:00Z,00000200,00000000,0061.31,0052.67,0038.54,0006.99,0005.47,0004.31,0014.46,0013.52,0011.09,18.6,24.6,12.8,08.8,0674.7,30.9
2021-08-13T20:40:00Z,00000200,00000000,0059.82,0052.99,0038.11,0007.02,0005.23,0004.56,0014.30,0013.57,0010.76,18.6,24.6,12.7,08.8,0674.6,30.9
2021-08-13T20:41:00Z,00000200,00000000,0062.05,0053.10,0038.79,0008.36,0005.33,0004.56,0015.16,0013.69,0011.30,18.6,24.6,12.7,08.8,0674.6,30.8
2021-08-13T20:42:00Z,00000200,00000000,0062.39,0053.20,0038.63,0007.25,0005.62,0004.50,0014.58,0013.83,0011.44,18.6,24.6,12.8,08.8,0674.6,30.8
2021-08-13T20:43:00Z,00000200,00000000,0064.86,0055.53,0040.36,0007.28,0006.00,0004.73,0014.86,0014.11,0011.39,18.7,24.6,12.7,08.8,0674.6,30.9
2021-08-13T20:44:00Z,00000200,00000000,0063.58,0054.46,0039.99,0006.49,0005.76,0004.78,0015.29,0014.01,0011.51,18.7,24.7,12.7,08.8,0674.5,30.9
2021-08-13T20:45:00Z,00000200,00000000,0063.49,0055.07,0040.12,0007.60,0005.55,0004.75,0015.56,0014.47,0011.66,18.7,24.7,12.7,08.8,0674.5,30.9
2021-08-13T20:46:00Z,00000200,00000000,0064.61,0055.44,0040.09,0006.92,0005.87,0004.23,0014.73,0014.27,0011.25,18.7,24.7,12.8,08.8,0674.5,30.9
2021-08-13T20:47:00Z,00000200,00000000,0064.22,0055.79,0040.33,0007.67,0005.56,0004.29,0015.53,0014.22,0011.92,18.7,24.7,12.7,08.8,0674.4,30.9
2021-08-13T20:48:00Z,00000200,00000000,0065.77,0056.23,0041.00,0007.82,0005.61,0004.91,0015.56,0014.67,0011.86,18.7,24.7,12.7,08.8,0674.5,30.9
2021-08-13T20:49:00Z,00000200,00000000,0065.81,0056.67,0041.12,0007.10,0005.81,0004.90,0015.75,0014.59,0011.97,18.7,24.7,12.7,08.8,0674.5,30.9
2021-08-13T20:50:00Z,00000200,00000000,0066.23,0057.26,0041.26,0007.63,0006.18,0005.05,0015.66,0014.81,0011.53,18.7,24.7,12.8,08.9,0674.5,30.9
2021-08-13T20:51:00Z,00000200,00000000,0068.21,0056.72,0042.05,0008.32,0005.68,0004.93,0016.01,0014.50,0012.29,18.7,24.7,12.7,08.8,0674.5,30.9
2021-08-13T20:52:00Z,00000200,00000000,0067.37,0058.03,0041.39,0007.57,0006.20,0004.66,0015.95,0015.00,0012.46,18.6,24.7,12.7,08.8,0674.6,30.9
2021-08-13T20:53:00Z,00000200,00000000,0066.70,0057.50,0041.67,0008.04,0005.82,0004.79,0015.88,0015.16,0011.80,18.6,24.7,12.7,08.8,0674.5,30.9
2021-08-13T20:54:00Z,00000200,00000000,0069.14,0057.29,0041.35,0007.59,0006.26,0004.82,0016.23,0014.73,0012.26,18.6,24.7,12.8,08.8,0674.6,30.9
2021-08-13T20:55:00Z,00000200,00000000,0067.95,0058.09,0042.25,0007.64,0005.82,0004.69,0015.95,0015.17,0012.54,18.6,24.6,12.8,08.9,0674.6,30.9
2021-08-13T20:56:00Z,00000200,00000000,0066.33,0058.38,0042.79,0007.50,0006.23,0004.84,0016.44,0014.97,0012.06,18.6,24.6,12.8,08.8,0674.6,30.9
2021-08-13T20:57:00Z,00000200,40000000,,,,,,,0004.13,0003.93,0003.12,18.6,24.5,12.6,08.7,0674.5,30.9
2021-08-13T20:58:00Z,00000200,60000000,,,,,,,-000.29,0000.02,0000.05,18.4,24.8,12.7,08.6,0673.5,30.9
2021-08-13T20:59:00Z,00000200,20000000,,,,,,,-000.00,-000.08,-000.06,18.4,24.9,12.7,08.5,0673.6,30.9
